This is the latest recevied weather packets stored in our database for station/object WD4ITN. If no packets are shown the sender has not sent any weather packets the latest 10 day(s).
| Time | Temp. | Humidity | Pressure | Rain* | Wind** | Luminosity | Snow |
|---|---|---|---|---|---|---|---|
| 1777559294 | 10° C | 70% | 1009.5 hPa | 0 mm | - | - | - |
| 1777559013 | 10.56° C | 67% | 1009.6 hPa | 0 mm | - | - | - |
| 1777558705 | 10.56° C | 70% | 1009.6 hPa | 0 mm | - | - | - |
| 1777558402 | 10.56° C | 70% | 1009.4 hPa | 0 mm | - | - | - |
| 1777558100 | 10.56° C | 70% | 1009.5 hPa | 0 mm | - | - | - |
| 1777557797 | 10.56° C | 70% | 1009.5 hPa | 0 mm | - | - | - |
| 1777557495 | 10° C | 70% | 1009.4 hPa | 0 mm | - | - | - |
| 1777557213 | 10° C | 72% | 1009.5 hPa | 0 mm | - | - | - |
| 1777556905 | 10° C | 72% | 1009.5 hPa | 0 mm | - | - | - |
| 1777556603 | 10° C | 74% | 1009.5 hPa | 0 mm | - | - | - |
| 1777556301 | 9.44° C | 72% | 1009.6 hPa | 0 mm | - | - | - |
| 1777556022 | 9.44° C | 75% | 1009.6 hPa | 0 mm | - | - | - |
| 1777555710 | 9.44° C | 74% | 1009.6 hPa | 0 mm | - | - | - |
| 1777555410 | 9.44° C | 75% | 1009.7 hPa | 0 mm | - | - | - |
| 1777555102 | 9.44° C | 76% | 1009.7 hPa | 0 mm | - | - | - |
| 1777554799 | 9.44° C | 74% | 1009.7 hPa | 0 mm | - | - | - |
| 1777554506 | 9.44° C | 76% | 1009.5 hPa | 0 mm | - | - | - |
| 1777554197 | 8.89° C | 75% | 1009.4 hPa | 0 mm | - | - | - |
| 1777553898 | 8.89° C | 73% | 1009.4 hPa | 0 mm | - | - | - |
| 1777553592 | 8.89° C | 74% | 1009.4 hPa | 0 mm | - | - | - |
| 1777553309 | 8.89° C | 76% | 1009.2 hPa | 0 mm | - | - | - |
| 1777552994 | 8.89° C | 77% | 1009.3 hPa | 0 mm | - | - | - |
| 1777552702 | 8.89° C | 77% | 1009.2 hPa | 0 mm | - | - | - |
| 1777552400 | 8.89° C | 77% | 1009.3 hPa | 0 mm | - | - | - |
| 1777552107 | 8.89° C | 76% | 1009.3 hPa | 0 mm | - | - | - |
* Rain since midnight (hover to see other rain measurements)
** Current wind speed in m/s (hover to see current wind gust speed)